Regional Weather Roundup
Issued by NWS

Home | Current Version | Previous Version | Text Only | Print | Product List | Glossary Off
Versions: 1 2 3 4 5 6 7 8 9 10 11 12 13 14 15 16 17 18 19 20 21 22 23 24 25 26 27 28 29 30 31 32 33 34 35 36 37 38 39 40 41 42 43 44 45 46 47 48 49 50

000
ASUS43 KMPX 300810
RWRMN
WEATHER ROUNDUP FOR MINNESOTA
NATIONAL WEATHER SERVICE TWIN CITIES/CHANHASSEN MN
300 AM CDT THU OCT 30 2014


NOTE: "FAIR" INDICATES FEW OR NO CLOUDS BELOW 12,000 FEET WITH NO
SIGNIFICANT WEATHER AND/OR OBSTRUCTIONS TO VISIBILITY. N/A MEANS
CURRENT SKY AND/OR WEATHER CONDITIONS ARE NOT AVAILABLE.

MNZ060>063-068>070-300900-
   Twin Cities Metro

CITY           SKY/WX    TMP DP  RH WIND       PRES   REMARKS
TWIN CITIES    CLOUDY    38  32  79 E5        30.06F
ST PAUL        CLOUDY    38  34  85 SE3       30.08F
CRYSTAL        CLOUDY    39  34  82 CALM      30.05F
BLAINE         CLOUDY    39  37  93 CALM      30.06S
LAKEVILLE      CLOUDY    34  30  86 CALM      30.05F
EDEN PRAIRIE   CLOUDY    39  32  76 E5        30.05S
SOUTH ST PAUL  CLOUDY    38  33  82 CALM      30.07S
LAKE ELMO      CLOUDY    36  32  87 CALM      30.07F
$$
MNZ001>005-007-008-013>017-022>024-027-028-300900-
   Northwest Minnesota

CITY           SKY/WX    TMP DP  RH WIND       PRES   REMARKS
BEMIDJI        CLOUDY    34  31  90 SE3       30.02S
HALLOCK        PTCLDY    34  30  86 NE5       30.06R WCI  30
ROSEAU         MOCLDY    34  28  80 CALM      30.05S
WARROAD        CLOUDY    34  28  80 CALM      30.05S
THIEF RVR FALL CLOUDY    36  32  87 E5        30.03R
CROOKSTON      CLOUDY    39  36  87 E5        30.03R
FOSSTON        CLOUDY    34  32  93 CALM      30.02S
DETROIT LAKES  PTCLDY    36  34  93 SE3       30.01R
MOORHEAD       LGT RAIN  39  39 100 S7        30.00R
PARK RAPIDS    LGT RAIN  35  32  88 SE5       30.01S WCI  31
MAHNOMEN       RAIN      36  34  94 SE5       30.00S
$$
MNZ006-009>011-018-025>026-300900-
   North Central Minnesota

CITY           SKY/WX    TMP DP  RH WIND       PRES   REMARKS
BAUDETTE       CLOUDY    33  31  92 CALM      30.05R
FLAG ISLAND    CLOUDY    36  34  93 W8        30.04R
INTL FALLS     LGT RAIN  34  33  96 W3        30.03S
WASKISH        CLOUDY    34  32  93 CALM      30.04S
BIG FORK       CLOUDY    34  32  93 CALM      30.05R
LONGVILLE      CLOUDY    34  30  86 CALM      30.03S
GRAND RAPIDS   CLOUDY    34  30  86 S3        30.03S
CRANE LAKE     CLOUDY    34  34 100 CALM      30.05S
ORR            CLOUDY    34  30  86 CALM      30.01S
COOK           RAIN      34  34 100 CALM      30.04S
WALKER         PTSUNNY   35  30  83 SE3       30.02F
$$
MNZ012-019>021-037-300900-
   Northeast Minnesota

CITY           SKY/WX    TMP DP  RH WIND       PRES   REMARKS
DULUTH         CLOUDY    36  32  85 W5        30.04S
ELY            CLOUDY    34  32  93 W3        30.03S
HIBBING        CLOUDY    35  32  88 S3        30.03F
EVELETH        CLOUDY    34  34 100 CALM      30.05R
DULUTH HARBOR  CLOUDY    39  36  87 CALM      30.08S
TWO HARBORS    CLOUDY    37 N/A N/A CALM      30.03S
SILVER BAY     MOCLDY    36  34  93 CALM      30.03R
GRAND MARAIS     N/A     41  35  79 CALM      30.03S
G MARAIS ARPRT CLOUDY    34  30  86 NW1       30.00F
$$
MNZ029>031-032-039>041-046>048-054>057-064-300900-
   West Central Minnesota

CITY           SKY/WX    TMP DP  RH WIND       PRES   REMARKS
FERGUS FALLS   CLOUDY    39  34  81 SE8       30.01S
WHEATON        CLOUDY    36  34  93 SE9       30.01F
MORRIS         CLOUDY    37  36  93 SE8       30.00S
ALEXANDRIA     CLOUDY    38  33  82 S9        30.02F
ELBOW LAKE     CLOUDY    38  35  90 SE7       30.00S
WADENA         CLOUDY    34  34 100 CALM      30.01S
GLENWOOD       LGT RAIN  36  34  93 SE6       30.02F
APPLETON       DRIZZLE   39  37  93 E10       30.00S
BENSON         DRIZZLE   37  36  93 SE6       30.01F
ORTONVILLE     DRIZZLE   37  36  93 E7        29.99S
MADISON        CLOUDY    43  39  87 SE5       29.99S
WILLMAR        LGT RAIN  39  34  81 E8        30.03F
$$
MNZ033>034-036-042>043-049>051-058-059-300900-
   Central Minnesota

CITY           SKY/WX    TMP DP  RH WIND       PRES   REMARKS
ST CLOUD       CLOUDY    39  34  82 CALM      30.05S
SAUK CENTRE    CLOUDY    36  33  87 SE5       30.03F
PAYNESVILLE    CLOUDY    36  32  85 E5        30.04S
AITKIN         CLOUDY    36  30  80 CALM      30.03S
PINE RIVER     CLOUDY    36  32  87 NE3       30.06S
BRAINERD       CLOUDY    35  32  88 CALM      30.04S
STAPLES        CLOUDY    36  32  87 NE3       30.02S
LONG PRAIRIE   CLOUDY    34  34 100 CALM      30.03S
LITTLE FALLS   MIX PCPN  36  32  87 CALM      30.04S
LITCHFIELD     CLOUDY    37  36  93 CALM      30.04F
BUFFALO        CLOUDY    38  32  81 CALM      30.06S
MAPLE LAKE     CLOUDY    39  36  87 CALM      30.05F
$$
MNZ037-044-045-052-053-300900-
   East Central Minnesota

CITY           SKY/WX    TMP DP  RH WIND       PRES   REMARKS
PRINCETON      CLOUDY    37  34  87 CALM      30.05F
MORA           CLOUDY    36  32  87 CALM      30.07S
CAMBRIDGE      CLOUDY    39  30  70 CALM      30.04F
RUSH CITY      CLOUDY    36  32  85 CALM      30.06S
MOOSE LAKE     CLOUDY    36  32  87 CALM      30.04S
HINCKLEY       CLOUDY    36  34  93 CALM      30.06S
CLOQUET        CLOUDY    36  32  87 CALM      30.04S
MCGREGOR       CLOUDY    34  32  93 CALM      30.05S
$$
MNZ071>073-080-081-089-090-097-098-300900-
   Southwest Minnesota

CITY           SKY/WX    TMP DP  RH WIND       PRES   REMARKS
MONTEVIDEO     CLOUDY    39  37  93 S7        30.02S
GRANITE FALLS  CLOUDY    38  35  87 E3        30.03F
CANBY          CLOUDY    40  37  91 SE3       30.00S
MARSHALL       CLOUDY    41  34  75 SE8       29.99F
REDWOOD FALLS  CLOUDY    39  34  82 E3        30.02F
OLIVIA         DRIZZLE   39  34  81 E3        30.02F
PIPESTONE      CLOUDY    45  34  65 S5        29.97S
WINDOM           N/A     43  34  70 CALM      30.02S
WORTHINGTON    CLOUDY    46  30  53 S9        30.00F
JACKSON        CLOUDY    45  32  61 S7        30.01F
TRACY          CLOUDY    41  37  84 E6        30.00F
SLAYTON        CLOUDY    43  33  67 CALM      29.99F
$$
MNZ065>067-074>077-082>085-091>093-300900-
   South Central Minnesota

CITY           SKY/WX    TMP DP  RH WIND       PRES   REMARKS
MANKATO        CLOUDY    39  30  70 S3        30.04S
NEW ULM          N/A     39  34  81 SE5       30.03S
ST JAMES       CLOUDY    41  34  75 E3        30.04F
FAIRMONT       CLOUDY    41  30  65 S6        30.03F
GLENCOE        CLOUDY    38  33  84 CALM      30.04S
FARIBAULT      CLOUDY    37  34  87 CALM      30.05S
OWATONNA       CLOUDY    39  32  75 S8        30.05S
WASECA         CLOUDY    37  32  81 CALM      30.06S
ALBERT LEA     CLOUDY    37  34  87 S3        30.05S
$$
MNZ078>079-086>088-094>096-300900-
   Southeast Minnesota

CITY           SKY/WX    TMP DP  RH WIND       PRES   REMARKS
ROCHESTER      CLOUDY    35  32  88 S7        30.06F WCI  29
RED WING       MOCLDY    36  34  93 CALM      30.07F
STANTON        CLOUDY    37  32  81 CALM      30.05S
DODGE CENTER   CLOUDY    37  34  87 S8        30.05F
WINONA         MOCLDY    36  34  93 CALM      30.10F
AUSTIN         CLOUDY    37  32  81 S5        30.06S
PRESTON        CLOUDY    34  32  90 S3        30.07F
$$
ABBREVIATIONS USED IN REMARKS
   TC - TEMPERATURES IN CELSIUS
  WCI - WIND CHILL INDEX
   HX - HEAT INDEX
  VSB - VISIBILITY
$$



USA.gov is the U.S. government's official web portal to all federal, state and local government web resources and services.